Location: Lafig�re
(44.4503°N, 4.0357°E)
Time: 14:58:49
(UTC+00:00)

Vanguard 2 Rocket - Pass Details

Date: 29 January 2021
Orbit: 554 x 3325 km, 32.9° (Epoch: 06 March)

Event Time Altitude Azimuth Distance (km) Brightness Sun altitude
Rises 17:18:44 0° 269° (W) 6,114 12.8 -5.7°
Reaches altitude 10° 17:23:53 10° 261° (W) 4,623 12.2 -6.6°
Maximum altitude 17:33:44 32° 205° (SSW) 2,263 9.4 -8.3°
Drops below altitude 10° 17:39:53 10° 144° (SE) 2,840 9.2 -9.3°
Sets 17:42:17 0° 134° (SE) 3,521 9.6 -9.8°
